LOT9K EPKK-EDDF

Flight info

Callsign LOT9K
Flight time N/A
Altitude 28000
Route ADADO M992 UTEVO/N0479F340 DCT RAPET T170 VAGAB/N0437F240 T170 GAPLA T178 KERAX KERAX5A
Aircraft B788/H-SDE1E2E3FGHIJ2J3J4J5M1RWXY/LB1D1

Departure

Time N/A
Airport Kraków John Paul II International Airport (EPKK)

Arrival

Time 2026-05-04 17:14
Airport Frankfurt Main Airport (EDDF)
Time Latitude Longitude Altitude Speed Heading
2026-05-04 16:47 50.20736 13.07803 39971 ft 456 kts 267°
2026-05-04 16:48 50.20118 12.28791 39972 ft 462 kts 287°
2026-05-04 16:49 50.37486 11.53169 39970 ft 464 kts 287°
2026-05-04 16:50 50.54344 10.76913 39369 ft 457 kts 287°
2026-05-04 16:51 50.61498 10.45443 37591 ft 457 kts 286°
2026-05-04 16:51 50.62555 10.40713 37297 ft 457 kts 285°
2026-05-04 16:51 50.63677 10.30977 36713 ft 449 kts 267°
2026-05-04 16:52 50.62736 10.21414 35377 ft 445 kts 250°
2026-05-04 16:52 50.61531 10.16932 34691 ft 445 kts 241°
2026-05-04 16:53 50.58565 10.08346 33169 ft 446 kts 241°
2026-05-04 16:53 50.54198 9.95397 30877 ft 445 kts 248°
2026-05-04 16:54 50.53254 9.90795 30174 ft 444 kts 253°
2026-05-04 16:55 50.49913 9.72283 27003 ft 440 kts 253°
2026-05-04 16:55 50.48340 9.63026 25519 ft 437 kts 254°
2026-05-04 16:56 50.46729 9.54186 23889 ft 397 kts 252°
2026-05-04 16:56 50.44556 9.42539 21085 ft 348 kts 252°
2026-05-04 16:57 50.43869 9.38960 20189 ft 337 kts 252°
2026-05-04 16:57 50.42573 9.32138 18489 ft 319 kts 251°
2026-05-04 16:58 50.40552 9.22295 15814 ft 326 kts 248°
2026-05-04 16:58 50.39776 9.18901 14974 ft 336 kts 249°
2026-05-04 16:59 50.38168 9.11823 13297 ft 351 kts 248°
2026-05-04 17:00 50.35083 8.98601 10979 ft 302 kts 247°
2026-05-04 17:00 50.32982 8.89642 9820 ft 292 kts 246°
2026-05-04 17:01 50.30415 8.85081 8811 ft 282 kts 205°
2026-05-04 17:01 50.26601 8.84619 7839 ft 282 kts 163°
2026-05-04 17:02 50.23991 8.87574 7181 ft 284 kts 128°
2026-05-04 17:02 50.23075 8.93371 6608 ft 268 kts 84°
2026-05-04 17:03 50.23588 8.96116 6392 ft 262 kts 73°
2026-05-04 17:03 50.24192 8.98730 6149 ft 256 kts 72°
2026-05-04 17:03 50.25397 9.03869 5675 ft 247 kts 72°
2026-05-04 17:04 50.25972 9.08969 5279 ft 236 kts 115°
2026-05-04 17:04 50.23492 9.11059 4996 ft 209 kts 199°
2026-05-04 17:05 50.21279 9.08275 5014 ft 204 kts 224°
2026-05-04 17:05 50.19377 9.05318 5007 ft 183 kts 224°
2026-05-04 17:06 50.17606 9.02557 5004 ft 177 kts 224°
2026-05-04 17:06 50.16787 9.01110 4998 ft 180 kts 229°
2026-05-04 17:07 50.15305 8.98056 4982 ft 180 kts 243°
2026-05-04 17:07 50.14993 8.96863 4992 ft 180 kts 245°
2026-05-04 17:07 50.14385 8.94428 4998 ft 189 kts 247°
2026-05-04 17:07 50.13934 8.92543 5005 ft 187 kts 247°
2026-05-04 17:08 50.13479 8.90638 5004 ft 187 kts 247°
2026-05-04 17:08 50.12556 8.86778 4999 ft 190 kts 248°
2026-05-04 17:08 50.12095 8.84851 4854 ft 191 kts 247°
2026-05-04 17:09 50.11625 8.82890 4579 ft 195 kts 248°
2026-05-04 17:09 50.11148 8.80898 4298 ft 199 kts 248°
2026-05-04 17:09 50.10660 8.78858 4010 ft 203 kts 249°
2026-05-04 17:10 50.09691 8.74813 3458 ft 208 kts 250°
2026-05-04 17:10 50.08219 8.68633 2561 ft 179 kts 251°
2026-05-04 17:11 50.07809 8.66884 2335 ft 167 kts 251°
2026-05-04 17:11 50.07414 8.65235 2092 ft 159 kts 251°
2026-05-04 17:11 50.06690 8.62208 1663 ft 148 kts 253°
2026-05-04 17:12 50.06335 8.60702 1444 ft 145 kts 252°
2026-05-04 17:12 50.05661 8.57889 1042 ft 136 kts 252°
2026-05-04 17:13 50.04689 8.53827 467 ft 131 kts 253°
2026-05-04 17:14 50.03959 8.50994 359 ft 22 kts 221°
2026-05-04 17:14 50.03842 8.50838 352 ft 22 kts 212°
2026-05-04 17:14 50.03780 8.50903 356 ft 7 kts 89°
2026-05-04 17:15 50.03809 8.51043 356 ft 16 kts 68°
2026-05-04 17:15 50.03926 8.51534 361 ft 46 kts 71°
2026-05-04 17:16 50.04140 8.52419 362 ft 46 kts 70°
2026-05-04 17:16 50.04405 8.53617 383 ft 33 kts 85°
2026-05-04 17:17 50.04427 8.53979 383 ft 34 kts 83°
2026-05-04 17:17 50.04189 8.54841 366 ft 29 kts 161°
2026-05-04 17:18 50.04069 8.54911 368 ft 0 kts 158°
2026-05-04 17:19 50.04048 8.54924 368 ft 3 kts 158°
2026-05-04 17:19 50.03876 8.55026 369 ft 17 kts 159°
2026-05-04 17:20 50.03866 8.55183 370 ft 14 kts 68°
2026-05-04 17:20 50.03935 8.55473 368 ft 14 kts 70°
2026-05-04 17:20 50.03986 8.55686 362 ft 38 kts 69°
2026-05-04 17:21 50.04101 8.55968 358 ft 6 kts 348°
2026-05-04 17:21 50.04164 8.55933 359 ft 0 kts 340°
2026-05-04 17:23 50.04233 8.55936 359 ft 8 kts 26°
2026-05-04 17:23 50.04291 8.55965 360 ft 8 kts 338°
2026-05-04 17:23 50.04405 8.55948 364 ft 8 kts 45°
2026-05-04 17:24 50.04439 8.56067 365 ft 13 kts 69°